Home > Weather > Leesburg > Past weeks

Flag for USA Past Weather in Leesburg, Virginia, USA — Yesterday and Last 2 Weeks

Now
68 °F

Clear.


Feels Like: 68 °F
Forecast: 66 / 88 °F
Wind: No wind

Location: Leesburg / Godfrey

Current Time: May 27, 2016 at 4:42:10 AM

Latest Report: May 27, 2016 at 4:15 AM


Visibility: 10 mi

Pressure: 30.07 "Hg

Humidity: 100%

Dew Point: 68 °F

Location of LeesburgLocation

Past Weather in Leesburg — Graph

°F

Leesburg Temperature Yesterday

Maximum temperature yesterday: 91 °F (at 2:55 PM)
Minimum temperature yesterday: 59 °F (at 4:15 AM)
Average temperature yesterday: 76 °F

High & Low Weather Summary for the Past Weeks

 TemperatureHumidityPressure
High91 °F (May 26, 2:55 PM)100% (May 12, 3:15 AM)30.30 "Hg (May 12, 3:15 AM)
Low41 °F (May 16, 1:15 AM)30% (May 20, 2:55 PM)29.70 "Hg (May 14, 4:35 PM)
Average62 °F75%30.05 "Hg
* Reported May 12 3:15 AM — May 27 3:15 AM, Leesburg, Weather by CustomWeather, © 2016

Note: Actual official high and low records may vary slightly from our data, if they occured in-between our weather recording intervals... More about our weather records

Advertising

Leesburg Weather History for the Previous 24 Hours

Scroll right to see more
 ConditionsComfort  
Time TempWeatherWind HumidityBarometerVisibility
3:15 AM
Fri, May 27
70 °FClear.No wind94%30.07 "Hg10 mi
2:55 AM70 °FPassing clouds.3 mph94%30.06 "Hg10 mi
2:35 AM70 °FPassing clouds.No wind94%30.06 "Hg10 mi
2:15 AM70 °FClear.3 mph94%30.06 "Hg10 mi
1:55 AM68 °FClear.No wind100%30.06 "Hg10 mi
1:35 AM70 °FClear.3 mph94%30.05 "Hg10 mi
1:15 AM73 °FPassing clouds.7 mph83%30.05 "Hg10 mi
12:55 AM73 °FPassing clouds.7 mph83%30.05 "Hg10 mi
12:35 AM72 °FPassing clouds.5 mph88%30.05 "Hg10 mi
12:15 AM72 °FPassing clouds.3 mph88%30.04 "Hg10 mi
11:55 PM
Thu, May 26
75 °FPassing clouds.13 mph78%30.05 "Hg10 mi
11:35 PM77 °FClear.12 mph74%30.05 "Hg10 mi
11:15 PM75 °FClear.13 mph78%30.05 "Hg10 mi
10:55 PM77 °FClear.13 mph74%30.05 "Hg10 mi
10:35 PM79 °FPassing clouds.7 mph65%30.05 "Hg10 mi
10:15 PM77 °FPassing clouds.6 mph74%30.06 "Hg10 mi
9:55 PM79 °FPassing clouds.12 mph70%30.04 "Hg10 mi
9:35 PM81 °FPassing clouds.5 mph62%30.03 "Hg10 mi
9:15 PM81 °FScattered clouds.5 mph62%30.03 "Hg10 mi
8:55 PM82 °FSunny.3 mph58%30.03 "Hg10 mi
8:35 PM82 °FSunny.6 mph58%30.03 "Hg10 mi
8:15 PM82 °FPartly sunny.8 mph62%30.03 "Hg10 mi
7:55 PM86 °FPartly sunny.5 mph55%30.03 "Hg10 mi
7:15 PM86 °FSunny.6 mph55%30.02 "Hg10 mi
6:55 PM88 °FSunny.6 mph52%30.02 "Hg10 mi
6:15 PM90 °FScattered clouds.8 mph43%30.01 "Hg10 mi
5:55 PM90 °FScattered clouds.15 mph43%30.02 "Hg10 mi
5:35 PM90 °FScattered clouds.8 mph43%30.02 "Hg10 mi
5:15 PM90 °FScattered clouds.12 mph43%30.03 "Hg10 mi
4:55 PM90 °FScattered clouds.6 mph43%30.03 "Hg10 mi
4:35 PM90 °FSunny.3 mph46%30.04 "Hg10 mi
4:15 PM90 °FSunny.3 mph49%30.05 "Hg10 mi
3:55 PM90 °FScattered clouds.12 mph46%30.05 "Hg10 mi
3:35 PM90 °FPartly sunny.9 mph49%30.05 "Hg10 mi
3:15 PM91 °FScattered clouds.7 mph44%30.06 "Hg10 mi
2:55 PM91 °FSunny.8 mph41%30.06 "Hg10 mi
2:35 PM90 °FSunny.6 mph46%30.07 "Hg10 mi
2:15 PM88 °FSunny.6 mph49%30.07 "Hg10 mi
1:55 PM90 °FSunny.7 mph52%30.07 "Hg10 mi
1:15 PM88 °FSunny.9 mph46%30.08 "Hg10 mi
12:55 PM86 °FSunny.3 mph49%30.09 "Hg10 mi
12:35 PM88 °FSunny.5 mph46%30.10 "Hg10 mi
12:15 PM86 °FSunny.6 mph49%30.10 "Hg10 mi
11:55 AM86 °FSunny.6 mph52%30.10 "Hg10 mi
11:35 AM84 °FSunny.6 mph55%30.11 "Hg10 mi
11:15 AM82 °FSunny.6 mph55%30.11 "Hg10 mi
10:55 AM82 °FSunny.6 mph55%30.11 "Hg10 mi
10:35 AM81 °FSunny.3 mph58%30.11 "Hg10 mi
10:15 AM79 °FSunny.5 mph61%30.11 "Hg10 mi
9:55 AM77 °FSunny.No wind65%30.13 "Hg10 mi
9:35 AM73 °FSunny.No wind74%30.13 "Hg10 mi
9:15 AM72 °FSunny.No wind78%30.14 "Hg10 mi
8:55 AM70 °FScattered clouds.3 mph83%30.14 "Hg10 mi
8:15 AM68 °FOvercast.No wind83%30.14 "Hg10 mi
7:55 AM68 °FOvercast.No wind83%30.14 "Hg10 mi
7:35 AM64 °FScattered clouds.No wind88%30.14 "Hg10 mi
7:15 AM63 °FSunny.No wind94%30.14 "Hg10 mi
6:55 AM61 °FSunny.No wind100%30.14 "Hg10 mi
6:15 AM59 °FClear.No wind100%30.13 "Hg10 mi
5:55 AM59 °FClear.No wind100%30.13 "Hg10 mi
5:15 AM59 °FClear.No wind100%30.13 "Hg10 mi
4:55 AM59 °FClear.No wind100%30.12 "Hg10 mi
4:35 AM59 °FClear.No wind100%30.12 "Hg10 mi
4:15 AM59 °FClear.No wind100%30.12 "Hg10 mi
Weather by CustomWeather, © 2016

See weather overviewHow to use our weather pages